Location: ČR
(50.0000°N, 15.0000°E)
Time: 04:22:08
(UTC+02:00)

Courier 1B Rocket - Visible Passes

Search period start: 16 April 2026 00:00
Search period end: 26 April 2026 00:00
Orbit: 920 x 1201 km, 28.2° (Epoch: 15 April)

Date Brightness Start Highest point End Pass type
(mag) Time Alt. Az. Time Alt. Az. Time Alt. Az.
17 Apr 7.0 21:29:32 10° S 21:30:47 10° S 21:31:54 10° SSE visible
18 Apr 7.1 22:20:48 10° SSW 22:20:56 10° SSW 22:20:56 10° SSW visible
19 Apr 7.0 21:19:00 10° SSW 21:21:04 11° S 21:23:08 10° SSE visible
21 Apr 7.1 21:09:13 10° SSW 21:11:20 11° S 21:13:27 10° S visible
23 Apr 7.2 21:00:06 10° SSW 21:01:34 11° SSW 21:03:02 10° S visible
